CXCAJ SUPE-SUMU

Flight info

Callsign CXCAJ
Flight time 0h 40m
Altitude 4000
Route DCT
Aircraft C172/L-V/N

Departure

Time 2026-05-07 19:59
Airport El Jagüel / Punta del Este Airport (SUPE)

Arrival

Time 2026-05-07 20:40
Airport Carrasco General Cesáreo L. Berisso International Airport (SUMU)
Time Latitude Longitude Altitude Speed Heading
2026-05-07 19:37 -34.91451 -54.91874 59 ft 0 kts 92°
2026-05-07 19:46 -34.91451 -54.91875 58 ft 0 kts 92°
2026-05-07 19:53 -34.91439 -54.91866 58 ft 8 kts 12°
2026-05-07 19:53 -34.91368 -54.91878 57 ft 8 kts 297°
2026-05-07 19:54 -34.91362 -54.91944 55 ft 9 kts 275°
2026-05-07 19:54 -34.91358 -54.92030 54 ft 7 kts 271°
2026-05-07 19:54 -34.91347 -54.92052 54 ft 0 kts
2026-05-07 19:58 -34.91346 -54.92052 54 ft 0 kts
2026-05-07 19:58 -34.91194 -54.92039 55 ft 47 kts
2026-05-07 19:58 -34.90838 -54.92056 183 ft 58 kts 347°
2026-05-07 19:58 -34.90436 -54.91956 420 ft 59 kts 357°
2026-05-07 19:59 -34.89966 -54.91887 517 ft 73 kts 338°
2026-05-07 19:59 -34.89600 -54.92247 694 ft 66 kts 284°
2026-05-07 19:59 -34.89664 -54.92792 839 ft 68 kts 246°
2026-05-07 19:59 -34.89761 -54.93336 1039 ft 66 kts 264°
2026-05-07 20:00 -34.89718 -54.93868 1299 ft 59 kts 268°
2026-05-07 20:00 -34.89556 -54.94400 1426 ft 72 kts 279°
2026-05-07 20:00 -34.89402 -54.94956 1663 ft 66 kts 274°
2026-05-07 20:00 -34.89291 -54.95491 1891 ft 65 kts 270°
2026-05-07 20:01 -34.89223 -54.96044 2073 ft 68 kts 266°
2026-05-07 20:01 -34.89191 -54.96628 2250 ft 68 kts 266°
2026-05-07 20:01 -34.89144 -54.97166 2464 ft 65 kts 270°
2026-05-07 20:01 -34.89115 -54.97762 2604 ft 70 kts 269°
2026-05-07 20:02 -34.89074 -54.98300 2862 ft 63 kts 269°
2026-05-07 20:02 -34.89087 -54.98892 2965 ft 71 kts 263°
2026-05-07 20:02 -34.89069 -54.99483 3118 ft 74 kts 270°
2026-05-07 20:02 -34.89050 -55.00117 3305 ft 71 kts 268°
2026-05-07 20:03 -34.88987 -55.00705 3462 ft 76 kts 281°
2026-05-07 20:03 -34.88835 -55.01317 3665 ft 71 kts 277°
2026-05-07 20:03 -34.88750 -55.01924 3795 ft 73 kts 276°
2026-05-07 20:03 -34.88685 -55.02592 3807 ft 89 kts 273°
2026-05-07 20:04 -34.88645 -55.03396 3791 ft 101 kts 271°
2026-05-07 20:04 -34.88626 -55.04271 3784 ft 105 kts 272°
2026-05-07 20:04 -34.88570 -55.05144 3764 ft 104 kts 273°
2026-05-07 20:04 -34.88518 -55.06003 3724 ft 97 kts 271°
2026-05-07 20:05 -34.88484 -55.06817 3599 ft 95 kts 271°
2026-05-07 20:05 -34.88439 -55.07610 3528 ft 93 kts 271°
2026-05-07 20:05 -34.88389 -55.08381 3489 ft 92 kts 273°
2026-05-07 20:05 -34.88315 -55.09133 3492 ft 88 kts 274°
2026-05-07 20:06 -34.88203 -55.09868 3485 ft 87 kts 277°
2026-05-07 20:06 -34.88126 -55.10592 3481 ft 85 kts 275°
2026-05-07 20:06 -34.88042 -55.11328 3485 ft 89 kts 275°
2026-05-07 20:06 -34.87955 -55.12065 3540 ft 88 kts 275°
2026-05-07 20:07 -34.87861 -55.12814 3549 ft 92 kts 277°
2026-05-07 20:07 -34.87835 -55.13012 3556 ft 92 kts 277°
2026-05-07 20:07 -34.87794 -55.13353 3582 ft 92 kts 276°
2026-05-07 20:08 -34.87721 -55.14099 3616 ft 89 kts 272°
2026-05-07 20:08 -34.87664 -55.14850 3627 ft 89 kts 272°
2026-05-07 20:08 -34.87564 -55.15592 3655 ft 87 kts 276°
2026-05-07 20:08 -34.87441 -55.16327 3616 ft 94 kts 280°
2026-05-07 20:09 -34.87281 -55.17109 3598 ft 96 kts 279°
2026-05-07 20:09 -34.87173 -55.17866 3706 ft 85 kts 274°
2026-05-07 20:09 -34.87210 -55.18627 3683 ft 86 kts 261°
2026-05-07 20:10 -34.87326 -55.20161 3620 ft 96 kts 273°
2026-05-07 20:10 -34.87145 -55.20953 3617 ft 99 kts 291°
2026-05-07 20:10 -34.86794 -55.21682 3623 ft 100 kts 297°
2026-05-07 20:10 -34.86451 -55.22414 3635 ft 99 kts 294°
2026-05-07 20:11 -34.86104 -55.23133 3645 ft 99 kts 297°
2026-05-07 20:11 -34.85722 -55.23816 3672 ft 95 kts 296°
2026-05-07 20:11 -34.85333 -55.24463 3634 ft 97 kts 297°
2026-05-07 20:11 -34.84943 -55.25094 3636 ft 93 kts 298°
2026-05-07 20:12 -34.84569 -55.25741 3643 ft 93 kts 300°
2026-05-07 20:12 -34.84166 -55.26390 3602 ft 96 kts 299°
2026-05-07 20:12 -34.83739 -55.27024 3603 ft 99 kts 300°
2026-05-07 20:12 -34.83305 -55.27650 3629 ft 96 kts 298°
2026-05-07 20:13 -34.82882 -55.28284 3621 ft 96 kts 296°
2026-05-07 20:13 -34.82487 -55.28930 3628 ft 97 kts 296°
2026-05-07 20:13 -34.82065 -55.29579 3629 ft 99 kts 300°
2026-05-07 20:13 -34.81631 -55.30254 3587 ft 100 kts 300°
2026-05-07 20:14 -34.81195 -55.30901 3600 ft 99 kts 302°
2026-05-07 20:14 -34.80791 -55.31580 3588 ft 97 kts 293°
2026-05-07 20:14 -34.80494 -55.32308 3577 ft 95 kts 283°
2026-05-07 20:14 -34.80368 -55.33025 3701 ft 84 kts 270°
2026-05-07 20:15 -34.80329 -55.33727 3699 ft 87 kts 274°
2026-05-07 20:15 -34.80247 -55.34400 3775 ft 83 kts 269°
2026-05-07 20:15 -34.80185 -55.35162 3741 ft 89 kts 273°
2026-05-07 20:15 -34.80107 -55.35955 3665 ft 97 kts 271°
2026-05-07 20:16 -34.80030 -55.36768 3652 ft 97 kts 272°
2026-05-07 20:16 -34.79946 -55.37562 3646 ft 94 kts 271°
2026-05-07 20:16 -34.79852 -55.38347 3643 ft 94 kts 274°
2026-05-07 20:16 -34.79743 -55.39151 3608 ft 98 kts 276°
2026-05-07 20:17 -34.79613 -55.39954 3591 ft 96 kts 276°
2026-05-07 20:17 -34.79472 -55.40753 3586 ft 96 kts 275°
2026-05-07 20:17 -34.79326 -55.41538 3571 ft 95 kts 277°
2026-05-07 20:17 -34.79165 -55.42330 3528 ft 98 kts 278°
2026-05-07 20:18 -34.79026 -55.43151 3501 ft 100 kts 274°
2026-05-07 20:18 -34.78927 -55.43970 3541 ft 97 kts 273°
2026-05-07 20:18 -34.78844 -55.44791 3514 ft 97 kts 272°
2026-05-07 20:18 -34.78785 -55.45612 3503 ft 96 kts 268°
2026-05-07 20:19 -34.78741 -55.46406 3501 ft 92 kts 270°
2026-05-07 20:19 -34.78670 -55.47172 3464 ft 91 kts 270°
2026-05-07 20:19 -34.78578 -55.47958 3375 ft 96 kts 272°
2026-05-07 20:19 -34.78486 -55.48729 3394 ft 89 kts 272°
2026-05-07 20:20 -34.78386 -55.49495 3298 ft 96 kts 273°
2026-05-07 20:20 -34.78292 -55.50319 3219 ft 101 kts 270°
2026-05-07 20:20 -34.78325 -55.51142 3157 ft 98 kts 252°
2026-05-07 20:20 -34.78473 -55.51927 3140 ft 95 kts 256°
2026-05-07 20:21 -34.78527 -55.52751 3060 ft 100 kts 264°
2026-05-07 20:21 -34.78448 -55.53604 2973 ft 103 kts 271°
2026-05-07 20:21 -34.78329 -55.54457 2938 ft 102 kts 274°
2026-05-07 20:21 -34.78151 -55.55301 2903 ft 103 kts 277°
2026-05-07 20:22 -34.77944 -55.56135 2859 ft 103 kts 278°
2026-05-07 20:22 -34.77684 -55.56965 2788 ft 105 kts 282°
2026-05-07 20:22 -34.77413 -55.57784 2721 ft 104 kts 278°
2026-05-07 20:22 -34.77218 -55.58618 2661 ft 101 kts 271°
2026-05-07 20:23 -34.77104 -55.59451 2625 ft 99 kts 269°
2026-05-07 20:23 -34.77019 -55.60282 2597 ft 98 kts 267°
2026-05-07 20:23 -34.76941 -55.61112 2568 ft 99 kts 267°
2026-05-07 20:23 -34.76842 -55.61927 2557 ft 100 kts 270°
2026-05-07 20:24 -34.76711 -55.62758 2527 ft 99 kts 270°
2026-05-07 20:24 -34.76618 -55.63591 2484 ft 98 kts 266°
2026-05-07 20:24 -34.76556 -55.64411 2484 ft 97 kts 266°
2026-05-07 20:24 -34.76507 -55.65212 2506 ft 93 kts 261°
2026-05-07 20:25 -34.76504 -55.66015 2494 ft 95 kts 259°
2026-05-07 20:25 -34.76525 -55.66820 2514 ft 94 kts 259°
2026-05-07 20:25 -34.76540 -55.67605 2554 ft 92 kts 258°
2026-05-07 20:25 -34.76560 -55.68372 2588 ft 90 kts 258°
2026-05-07 20:26 -34.76588 -55.69141 2602 ft 91 kts 258°
2026-05-07 20:26 -34.76637 -55.69908 2615 ft 92 kts 258°
2026-05-07 20:26 -34.76653 -55.70676 2665 ft 91 kts 263°
2026-05-07 20:26 -34.76595 -55.71439 2698 ft 90 kts 266°
2026-05-07 20:27 -34.76577 -55.72190 2710 ft 88 kts 261°
2026-05-07 20:27 -34.76591 -55.72931 2718 ft 89 kts 259°
2026-05-07 20:27 -34.76630 -55.73687 2723 ft 90 kts 257°
2026-05-07 20:27 -34.76680 -55.74451 2710 ft 90 kts 255°
2026-05-07 20:28 -34.76780 -55.75197 2681 ft 89 kts 251°
2026-05-07 20:28 -34.76900 -55.75934 2661 ft 90 kts 250°
2026-05-07 20:28 -34.77037 -55.76675 2657 ft 90 kts 249°
2026-05-07 20:28 -34.77201 -55.77418 2681 ft 90 kts 246°
2026-05-07 20:29 -34.77385 -55.78141 2687 ft 89 kts 245°
2026-05-07 20:29 -34.77553 -55.78863 2697 ft 88 kts 250°
2026-05-07 20:29 -34.77697 -55.79589 2691 ft 90 kts 250°
2026-05-07 20:29 -34.77836 -55.80340 2687 ft 92 kts 251°
2026-05-07 20:30 -34.77960 -55.81105 2683 ft 92 kts 252°
2026-05-07 20:30 -34.78086 -55.81867 2652 ft 91 kts 250°
2026-05-07 20:30 -34.78265 -55.82589 2626 ft 88 kts 245°
2026-05-07 20:30 -34.78495 -55.83277 2599 ft 88 kts 242°
2026-05-07 20:31 -34.78743 -55.83958 2587 ft 88 kts 240°
2026-05-07 20:31 -34.79023 -55.84613 2584 ft 86 kts 237°
2026-05-07 20:31 -34.79312 -55.85236 2593 ft 84 kts 236°
2026-05-07 20:31 -34.79623 -55.85849 2585 ft 86 kts 234°
2026-05-07 20:32 -34.79915 -55.86488 2577 ft 87 kts 242°
2026-05-07 20:32 -34.80172 -55.87176 2446 ft 91 kts 242°
2026-05-07 20:32 -34.80442 -55.87876 2283 ft 91 kts 241°
2026-05-07 20:32 -34.80713 -55.88578 2122 ft 93 kts 241°
2026-05-07 20:33 -34.81000 -55.89287 1947 ft 94 kts 239°
2026-05-07 20:33 -34.81306 -55.89985 1800 ft 93 kts 238°
2026-05-07 20:33 -34.81659 -55.90639 1637 ft 94 kts 233°
2026-05-07 20:33 -34.82049 -55.91282 1499 ft 93 kts 231°
2026-05-07 20:34 -34.82431 -55.91889 1361 ft 91 kts 231°
2026-05-07 20:34 -34.82806 -55.92508 1195 ft 91 kts 233°
2026-05-07 20:34 -34.83186 -55.93117 1146 ft 87 kts 232°
2026-05-07 20:34 -34.83524 -55.93720 1054 ft 88 kts 232°
2026-05-07 20:35 -34.83862 -55.94342 1008 ft 86 kts 235°
2026-05-07 20:35 -34.84178 -55.94932 983 ft 81 kts 237°
2026-05-07 20:35 -34.84474 -55.95512 950 ft 80 kts 237°
2026-05-07 20:35 -34.84764 -55.96076 990 ft 77 kts 236°
2026-05-07 20:36 -34.85044 -55.96622 1024 ft 74 kts 236°
2026-05-07 20:36 -34.85327 -55.97134 979 ft 74 kts 233°
2026-05-07 20:36 -34.85611 -55.97656 992 ft 74 kts 233°
2026-05-07 20:36 -34.85875 -55.98178 987 ft 75 kts 234°
2026-05-07 20:37 -34.86167 -55.98715 919 ft 75 kts 236°
2026-05-07 20:37 -34.86436 -55.99234 878 ft 72 kts 236°
2026-05-07 20:37 -34.86683 -55.99734 900 ft 64 kts 249°
2026-05-07 20:37 -34.86677 -56.00288 892 ft 68 kts 266°
2026-05-07 20:38 -34.86623 -56.00867 877 ft 70 kts 266°
2026-05-07 20:38 -34.86578 -56.01479 816 ft 80 kts 268°
2026-05-07 20:38 -34.86530 -56.02202 779 ft 85 kts 268°
2026-05-07 20:38 -34.86229 -56.02771 711 ft 83 kts 319°
2026-05-07 20:39 -34.85684 -56.02944 606 ft 78 kts 340°
2026-05-07 20:39 -34.85177 -56.03015 482 ft 69 kts 347°
2026-05-07 20:39 -34.84706 -56.03058 298 ft 68 kts 348°
2026-05-07 20:39 -34.84220 -56.03073 108 ft 68 kts 345°
2026-05-07 20:40 -34.83808 -56.03082 68 ft 48 kts 359°
2026-05-07 20:40 -34.83705 -56.03082 74 ft 9 kts 177°
2026-05-07 20:40 -34.83775 -56.03079 69 ft 11 kts 179°
2026-05-07 20:40 -34.83874 -56.03077 73 ft 19 kts 185°
2026-05-07 20:41 -34.83991 -56.03056 67 ft 15 kts 118°
2026-05-07 20:41 -34.84011 -56.02931 60 ft 17 kts 91°
2026-05-07 20:41 -34.84016 -56.02799 56 ft 12 kts 147°
2026-05-07 20:41 -34.84072 -56.02844 57 ft 9 kts 214°
2026-05-07 20:42 -34.84173 -56.02874 56 ft 21 kts 184°
2026-05-07 20:42 -34.84293 -56.02873 55 ft 14 kts 181°
2026-05-07 20:42 -34.84314 -56.02790 56 ft 12 kts 95°
2026-05-07 20:42 -34.84332 -56.02704 54 ft 11 kts 149°
2026-05-07 20:43 -34.84372 -56.02606 54 ft 17 kts 117°
2026-05-07 20:43 -34.84468 -56.02534 56 ft 15 kts 158°
2026-05-07 20:43 -34.84541 -56.02541 56 ft 10 kts 248°
2026-05-07 20:43 -34.84550 -56.02565 56 ft 0 kts 69°